Miscellaneous Local Product
Issued by NWS North Platte, NE

Home | Current Version | Previous Version | Text Only | Print | Product List | Glossary On
Versions: 1 2 3 4 5 6 7 8 9 10 11 12 13 14 15 16 17 18 19 20 21 22 23 24 25 26 27 28 29 30 31 32 33 34 35 36 37 38 39 40 41 42 43 44 45 46 47 48 49 50
429
AXUS43 KLBF 241010
MISLBF


WESTERN AND NORTH CENTRAL NEBRASKA HOURLY WEATHER ROUNDUP
NATIONAL WEATHER SERVICE NORTH PLATTE NE
500 AM CDT SUN JUL 24 2016

NOTE: "FAIR" INDICATES FEW OR NO CLOUDS BELOW 12,000 FEET WITH NO
SIGNIFICANT WEATHER AND/OR OBSTRUCTIONS TO VISIBILITY.

NOTE: STATIONS NOT REPORTING VARIABLES SUCH AS SKY/WEATHER OR
PRESSURE ARE PROVIDED BY RAWS AND APRS NETWORKS AND ARE NOT UNDER
NATIONAL WEATHER SERVICE QUALITY CONTROL.

...OBSERVATIONS IN AND NEAR THE EASTERN PANHANDLE OF NEBRASKA...

CITY           SKY/WX    TMP DP  RH WIND       PRES   REMARKS
PINE RIDGE     CLEAR     58  52  80 NE3       30.08R
CHADRON        PTCLDY    59  51  75 CALM      30.07S
ALLIANCE       CLEAR     60  56  86 N3        30.06F
SIDNEY         CLEAR     61  54  77 N3        30.11R
CRESCENT LAKE    N/A     64  57  79 N7          N/A
$$

...OBSERVATIONS IN NORTHERN NEBRASKA AND FAR SOUTHERN SOUTH DAKOTA...

CITY           SKY/WX    TMP DP  RH WIND       PRES   REMARKS
WINNER         FAIR      67  56  67 W8        29.98R
VALENTINE      CLOUDY    63  59  87 NW7       30.02S
THEDFORD       CLOUDY    67  59  77 CALM      30.02F
AINSWORTH      CLOUDY    66  60  80 NW6       30.03R
O`NEILL        PTCLDY    67  63  86 N3        29.95F
ORD            PTCLDY    68  62  81 N8        29.94S
BROKEN BOW     MOCLDY    65  61  87 N8        29.98S
VALENTINE NWR    N/A     69  58  68 N3          N/A
BUTTE            N/A     67  62  83 NE12        N/A
EWING            N/A     69  65  89 CALM        N/A
$$

...OBSERVATIONS IN SOUTHWEST NEBRASKA AND FAR NORTHEAST COLORADO...

CITY           SKY/WX    TMP DP  RH WIND       PRES   REMARKS
WRAY           FAIR      68  55  64 NE6       30.05R
HOLYOKE        FAIR      72  61  68 CALM      30.05S
IMPERIAL       CLOUDY    72  57  59 NE15      29.99F
OGALLALA       MOCLDY    74  55  49 E10       30.00F
NORTH PLATTE   CLOUDY    70  58  65 N3        29.99S
MCCOOK         CLOUDY    70  62  76 N5        29.97S
LEXINGTON      PTCLDY    69  61  76 NE7       29.95S
STAPLETON        N/A     68  60  75 CALM        N/A
GOTHENBURG       N/A     73  56  54 CALM        N/A
CALLAWAY         N/A     68  60  75 NE7         N/A
$$

...OBSERVATIONS IN CENTRAL LINCOLN COUNTY AREA...

CITY           SKY/WX    TMP DP  RH WIND       PRES   REMARKS
N.P. AIRPORT   CLOUDY    70  58  65 N3        29.99S
N.P. DOWNTOWN    N/A     72  59  63 CALM        N/A
N.P. SOUTHEAST   N/A     72  59  63 CALM        N/A
N.P. HILLCREST   N/A     70  60  70 E13G20      N/A
$$

...SOME OBSERVATIONS FROM AROUND THE REGION...

CITY           SKY/WX    TMP DP  RH WIND       PRES   REMARKS
DENVER         PTCLDY    69  50  50 S16       30.14S
LARAMIE        CLOUDY    55  46  71 S9        30.25F
CHEYENNE       CLOUDY    66  48  52 SW7       30.18F
SCOTTSBLUFF    CLOUDY    65  58  78 E6        30.06F
RAPID CITY     CLOUDY    66  45  46 CALM      30.11R THUNDER
BISMARCK       CLEAR     61  57  87 W7        30.00R
PIERRE         CLEAR     65  54  67 NW9       29.97F
SIOUX FALLS    PTCLDY    68  65  90 NW5       29.90S
OMAHA          PTCLDY    79  73  82 NW8       29.83S
GRAND ISLAND   CLEAR     70  68  93 NE7       29.92S
KANSAS CITY    PTCLDY    76  71  85 S8        29.88R
WICHITA        PTCLDY    77  68  73 SW5       29.91R
OKLAHOMA CITY  PTCLDY    74  71  91 S6        29.93R
DALLAS         CLEAR     82  71  69 SE7       29.90S
AMARILLO       CLOUDY    74  58  57 S9        30.05R
DODGE CITY     CLOUDY    74  66  76 S12       29.96F
HAYS           MOCLDY    84  59  42 NW6       29.91R
GOODLAND       CLOUDY    70  64  81 E7        30.03F
$$




USA.gov is the U.S. government's official web portal to all federal, state and local government web resources and services.